This is the latest recevied weather packets stored in our database for station/object PP5FMM-13. If no packets are shown the sender has not sent any weather packets the latest 10 day(s).
| Time | Temp. | Humidity | Pressure | Rain* | Wind** | Luminosity | Snow |
|---|---|---|---|---|---|---|---|
| 1777414527 | 25.56° C | 76% | 1017.6 hPa | - | - | - | - |
| 1777414227 | 25.56° C | 78% | 1017.6 hPa | - | - | - | - |
| 1777413927 | 25.56° C | 78% | 1017.4 hPa | - | - | - | - |
| 1777413628 | 25° C | 72% | 1017.4 hPa | - | - | - | - |
| 1777413327 | 25° C | 68% | 1017.2 hPa | - | - | - | - |
| 1777413028 | 25° C | 67% | 1017.3 hPa | - | - | - | - |
| 1777412728 | 25° C | 67% | 1017 hPa | - | - | - | - |
| 1777412427 | 25° C | 67% | 1017 hPa | - | - | - | - |
| 1777412128 | 25° C | 66% | 1017 hPa | - | - | - | - |
| 1777411827 | 25° C | 66% | 1017.1 hPa | - | - | - | - |
| 1777411527 | 25° C | 67% | 1017 hPa | - | - | - | - |
| 1777411227 | 25° C | 67% | 1017.1 hPa | - | - | - | - |
| 1777410927 | 25° C | 67% | 1017 hPa | - | - | - | - |
| 1777410627 | 25° C | 67% | 1016.9 hPa | - | - | - | - |
| 1777410327 | 25° C | 66% | 1017 hPa | - | - | - | - |
| 1777410028 | 24.44° C | 66% | 1017 hPa | - | - | - | - |
| 1777409728 | 24.44° C | 67% | 1016.9 hPa | - | - | - | - |
| 1777409428 | 24.44° C | 66% | 1016.8 hPa | - | - | - | - |
| 1777409128 | 24.44° C | 66% | 1016.7 hPa | - | - | - | - |
| 1777408828 | 24.44° C | 66% | 1016.8 hPa | - | - | - | - |
| 1777408527 | 24.44° C | 65% | 1016.9 hPa | - | - | - | - |
| 1777408227 | 23.89° C | 67% | 1016.9 hPa | - | - | - | - |
| 1777407927 | 23.89° C | 66% | 1017 hPa | - | - | - | - |
| 1777407628 | 23.89° C | 64% | 1016.9 hPa | - | - | - | - |
| 1777407328 | 24.44° C | 63% | 1016.9 hPa | - | - | - | - |
* Rain since midnight (hover to see other rain measurements)
** Current wind speed in m/s (hover to see current wind gust speed)